Regional Weather Roundup
Issued by NWS

Home | Current Version | Previous Version | Text Only | Print | Product List | Glossary Off
Versions: 1 2 3 4 5 6 7 8 9 10 11 12 13 14 15 16 17 18 19 20 21 22 23 24 25 26 27 28

000
ASUS45 KTFX 221610
RWRMT
MONTANA REGIONAL WEATHER ROUNDUP
NATIONAL WEATHER SERVICE GREAT FALLS MT
1000 AM MDT SAT JUL 22 2017

NOTE: "FAIR" INDICATES FEW OR NO CLOUDS BELOW 12000 FEET WITH NO
SIGNIFICANT WEATHER AND/OR OBSTRUCTIONS TO VISIBILITY.

MTZ001>007-043-221700-
WEST OF THE DIVIDE

CITY           SKY/WX    TMP DP  RH WIND       PRES   REMARKS
KALISPELL      SUNNY     66  46  48 E3        30.20F
MISSOULA       SUNNY     65  36  34 CALM      30.24S
BUTTE          SUNNY     65  31  28 CALM      30.31S
MULLAN PASS    SUNNY     61  35  37 VRB3      30.35R
ANACONDA         N/A     63  37  39 N5        30.29R
DEER LODGE       N/A     64  34  32 CALM      30.30S
EUREKA           N/A     72  45  37 MISG      30.17F
HAMILTON         N/A     64  37  36 CALM      30.25S
LIBBY            N/A     66  41  39 CALM      30.19F
PLAINS           N/A     67  43  41 CALM      30.20S
$$

MTZ008-052>055-221700-
SOUTHWEST MONTANA

CITY           SKY/WX    TMP DP  RH WIND       PRES   REMARKS
BOZEMAN        SUNNY     70  38  31 CALM      30.25S
DILLON         SUNNY     67  39  35 W5        30.27S
W YELLOWSTONE  SUNNY     64  32  29 CALM      30.35F
ENNIS          SUNNY     68  30  24 CALM      30.33S
THREE FORKS      N/A     68  38  33 CALM      30.21S
TWIN BRIDGES     N/A     64  33  31 CALM      30.23S
$$

MTZ009-010-012-014-046-048-049-054-221700-
EAST SLOPES AND CENTRAL MONTANA

CITY           SKY/WX    TMP DP  RH WIND       PRES   REMARKS
CUT BANK       SUNNY     74  39  28 W10       30.16F
GREAT FALLS    SUNNY     72  34  24 W8        30.18S
MALMSTROM AFB  SUNNY     70  37  30 SW6       30.18S
HELENA         SUNNY     77  30  17 W12       30.21F
CHOTEAU          N/A     73  36  25 SW5       30.20F
$$

MTZ011-013-016-021-045-047-050-051-221700-
NORTH CENTRAL MONTANA

CITY           SKY/WX    TMP DP  RH WIND       PRES   REMARKS
HAVRE          SUNNY     72  49  44 W3        30.13F
LEWISTOWN      SUNNY     72  33  24 CALM      30.19S
N BAR RANCH      N/A     73  34  23 E6        30.22S
CHINOOK          N/A     72  50  46 W3        30.12F
$$

MTZ017>020-022>027-061-062-221700-
NORTHEAST MONTANA

CITY           SKY/WX    TMP DP  RH WIND       PRES   REMARKS
GLASGOW        SUNNY     71  49  45 NW13      30.09R
JORDAN           N/A     77  43  29 N14       30.11S
SIDNEY         SUNNY     74  49  41 NW29      30.01F
WOLF POINT     SUNNY     76  49  38 NW18G25   30.06S
MALTA          SUNNY     75  50  41 NW13G21   30.10S
PLENTYWOOD       N/A     68  52  56 NW18      30.01S
POPLAR           N/A     72  52  49 NW14G23   30.05F
$$

MTZ028>42-056>058-221700-
SOUTHCENTRAL AND SOUTHEAST MONTANA

CITY           SKY/WX    TMP DP  RH WIND       PRES   REMARKS
BAKER          SUNNY     77  37  23 W10       30.10R
BILLINGS       MOSUNNY   71  39  31 S3        30.18S
LIVINGSTON     SUNNY     71  38  29 W6        30.23F
MILES CITY     SUNNY     81  35  19 N13       30.10S
BIG TIMBER     SUNNY     68  36  30 NW5       30.23F
FORSYTH          N/A     75  37  25 CALM      30.12S
LAUREL           N/A     71  39  31 CALM      30.16F
$$

REGIONAL REPORTS...DAKOTAS

CITY           SKY/WX    TMP DP  RH WIND       PRES   REMARKS
WILLISTON      SUNNY     73  50  44 NW17G30   30.01R
MINOT          SUNNY     77  52  41 NW16      29.93S
DICKINSON      SUNNY     80  43  26 W16G26    30.01F
BEACH            N/A     79  39  24 NW18      30.09S
CROSBY           N/A     70  54  56 NW14      29.99S
TIOGA            N/A     70  48  46 W18       29.99S
WATFORD CITY     N/A     73  50  43 W17G28    29.99F
BISMARCK       SUNNY     81  58  45 CALM      29.96F
GRAND FORKS    MOSUNNY   80  60  50 NW18G26   29.83R
FARGO          SUNNY     79  67  66 W15       29.85S
BUFFALO SD       N/A     78  48  34 W12       30.03S
RAPID CITY     CLOUDY    79  44  28 N15       30.08R
$$

REGIONAL REPORTS...WYOMING/IDAHO/WASHINGTON

CITY           SKY/WX    TMP DP  RH WIND       PRES   REMARKS
GILLETTE       SUNNY     78  33  19 N8        30.17S
SHERIDAN       SUNNY     77  36  22 N8        30.19R
BUFFALO WY     SUNNY     75  31  19 N8        30.24R
CODY           SUNNY     74  36  25 CALM      30.26S
YELLOWSTONE LA   N/A     58  45  62 SE5       30.43R
IDAHO FALLS    SUNNY     66  48  52 VRB5      30.24R
BOISE          SUNNY     71  45  39 NW3       30.15S
SPOKANE        MOSUNNY   71  43  36 S8        30.20R
$$

REGIONAL REPORTS...ALBERTA

CITY           SKY/WX    TMP DP  RH WIND       PRES   REMARKS
EDMONTON       SUNNY     68  57  68 NW2       30.01S
CALGARY        PTSUNNY   66  43  42 SW5       30.10F
LETHBRIDGE     PTSUNNY   73  45  35 W12       30.11F
MEDICINE HAT   CLOUDY    68  52  56 SW7       30.10S
WATERTON GATE    N/A     68  43  40 SW12G21     N/A
CARDSTON         N/A     73  43  33 W8          N/A
MILK RIVER       N/A     72  46  40 W6          N/A
$$

REGIONAL REPORTS...SASKATCHEWAN

CITY           SKY/WX    TMP DP  RH WIND       PRES   REMARKS
SWIFT CURRENT  SUNNY     66  52  59 NW15G23   30.07S
REGINA         MOSUNNY   66  55  68 N14G22    30.01R
SASKATOON      CLOUDY    59  57  94 CALM      30.03S
CYPRESS HILLS    N/A     63  48  59 NW7         N/A
VAL MARIE        N/A     70  48  46 NW14G22     N/A
ROCKGLEN         N/A     66  50  55 NW14G22     N/A
ASSINIBOIA       N/A     68  55  64 W1          N/A
$$




USA.gov is the U.S. government's official web portal to all federal, state and local government web resources and services.